Time,TemperatureF,DewpointF,PressureIn,WindDirection,WindDirectionDegrees,WindSpeedMPH,WindSpeedGustMPH,Humidity,HourlyPrecipIn,Conditions,Clouds,dailyrainin,SoftwareType,DateUTC
2013-02-16 00:00:00,46.0,42.0,30.24,SSW,207,0.0,0.0,87,0.00,,,0.00,weatherlink.com 1.10,2013-02-16 08:00:00,
2013-02-16 00:15:00,45.8,43.0,30.24,ESE,114,0.0,0.0,88,0.00,,,0.00,weatherlink.com 1.10,2013-02-16 08:15:00,
2013-02-16 00:30:00,45.6,43.0,30.24,ESE,115,0.0,0.0,89,0.00,,,0.00,weatherlink.com 1.10,2013-02-16 08:30:00,
2013-02-16 00:45:00,45.1,42.0,30.24,SSW,211,0.0,0.0,89,0.00,,,0.00,weatherlink.com 1.10,2013-02-16 08:45:00,
2013-02-16 01:01:00,44.6,42.0,30.25,WSW,239,0.0,0.0,90,0.00,,,0.00,weatherlink.com 1.10,2013-02-16 09:01:00,
2013-02-16 01:16:00,44.1,42.0,30.25,SE,131,0.0,0.0,91,0.00,,,0.00,weatherlink.com 1.10,2013-02-16 09:16:00,
2013-02-16 01:31:00,45.2,43.0,30.25,SE,138,0.0,1.0,90,0.00,,,0.00,weatherlink.com 1.10,2013-02-16 09:31:00,
2013-02-16 01:46:00,43.6,41.0,30.25,NNE,19,0.0,0.0,91,0.00,,,0.00,weatherlink.com 1.10,2013-02-16 09:46:00,
2013-02-16 02:01:00,43.8,42.0,30.24,ENE,60,0.0,1.0,92,0.00,,,0.00,weatherlink.com 1.10,2013-02-16 10:01:00,
2013-02-16 02:16:00,43.8,41.0,30.23,ENE,60,0.0,0.0,90,0.00,,,0.00,weatherlink.com 1.10,2013-02-16 10:16:00,
2013-02-16 02:31:00,43.9,42.0,30.23,ENE,60,0.0,0.0,92,0.00,,,0.00,weatherlink.com 1.10,2013-02-16 10:31:00,
2013-02-16 02:46:00,43.4,41.0,30.23,SSW,204,1.0,1.0,92,0.00,,,0.00,weatherlink.com 1.10,2013-02-16 10:46:00,
2013-02-16 03:01:00,42.9,41.0,30.22,SW,221,0.0,0.0,92,0.00,,,0.00,weatherlink.com 1.10,2013-02-16 11:01:00,
2013-02-16 03:16:00,42.6,41.0,30.22,NE,52,0.0,3.0,92,0.00,,,0.00,weatherlink.com 1.10,2013-02-16 11:16:00,
2013-02-16 03:31:00,42.4,40.0,30.22,SW,221,0.0,0.0,92,0.00,,,0.00,weatherlink.com 1.10,2013-02-16 11:31:00,
2013-02-16 03:46:00,41.9,40.0,30.21,SSE,167,0.0,0.0,93,0.00,,,0.00,weatherlink.com 1.10,2013-02-16 11:46:00,
2013-02-16 04:01:00,42.6,41.0,30.20,ESE,114,0.0,0.0,94,0.00,,,0.00,weatherlink.com 1.10,2013-02-16 12:01:00,
2013-02-16 04:16:00,41.9,40.0,30.20,West,280,0.0,1.0,93,0.00,,,0.00,weatherlink.com 1.10,2013-02-16 12:16:00,
2013-02-16 04:31:00,41.1,39.0,30.20,SSW,201,0.0,0.0,93,0.00,,,0.00,weatherlink.com 1.10,2013-02-16 12:31:00,
2013-02-16 04:46:00,40.4,39.0,30.20,SSW,200,0.0,0.0,94,0.00,,,0.00,weatherlink.com 1.10,2013-02-16 12:46:00,
2013-02-16 05:01:00,40.0,39.0,30.20,SSW,201,0.0,0.0,94,0.00,,,0.00,weatherlink.com 1.10,2013-02-16 13:01:00,
2013-02-16 05:16:00,40.7,39.0,30.20,ESE,102,0.0,0.0,95,0.00,,,0.00,weatherlink.com 1.10,2013-02-16 13:16:00,
2013-02-16 05:31:00,41.2,40.0,30.20,ESE,102,0.0,0.0,95,0.00,,,0.00,weatherlink.com 1.10,2013-02-16 13:31:00,
2013-02-16 05:46:00,40.5,39.0,30.20,East,101,0.0,0.0,95,0.00,,,0.00,weatherlink.com 1.10,2013-02-16 13:46:00,
2013-02-16 06:02:00,40.3,39.0,30.20,ESE,102,0.0,0.0,95,0.00,,,0.00,weatherlink.com 1.10,2013-02-16 14:02:00,
2013-02-16 06:16:00,40.0,39.0,30.19,North,6,0.0,0.0,95,0.00,,,0.00,weatherlink.com 1.10,2013-02-16 14:16:00,
2013-02-16 06:32:00,40.2,39.0,30.19,North,6,0.0,0.0,96,0.00,,,0.00,weatherlink.com 1.10,2013-02-16 14:32:00,
2013-02-16 06:46:00,39.6,38.0,30.20,North,6,0.0,0.0,95,0.00,,,0.00,weatherlink.com 1.10,2013-02-16 14:46:00,
2013-02-16 07:01:00,40.3,40.0,30.20,North,6,0.0,0.0,97,0.00,,,0.00,weatherlink.com 1.10,2013-02-16 15:01:00,
2013-02-16 07:16:00,41.0,40.0,30.20,North,6,0.0,0.0,96,0.00,,,0.00,weatherlink.com 1.10,2013-02-16 15:16:00,
2013-02-16 07:31:00,41.3,41.0,30.20,North,6,0.0,0.0,97,0.00,,,0.00,weatherlink.com 1.10,2013-02-16 15:31:00,
2013-02-16 07:46:00,41.4,40.0,30.20,North,6,0.0,0.0,96,0.00,,,0.00,weatherlink.com 1.10,2013-02-16 15:46:00,
2013-02-16 08:01:00,42.0,41.0,30.20,North,9,0.0,0.0,96,0.00,,,0.00,weatherlink.com 1.10,2013-02-16 16:01:00,
2013-02-16 08:16:00,42.7,42.0,30.20,SW,214,0.0,1.0,96,0.00,,,0.00,weatherlink.com 1.10,2013-02-16 16:16:00,
2013-02-16 08:31:00,43.6,42.0,30.21,SW,218,0.0,0.0,95,0.00,,,0.00,weatherlink.com 1.10,2013-02-16 16:31:00,
2013-02-16 08:47:00,44.9,43.0,30.21,South,172,0.0,0.0,94,0.00,,,0.00,weatherlink.com 1.10,2013-02-16 16:47:00,
2013-02-16 09:02:00,46.3,44.0,30.21,SSW,208,0.0,0.0,91,0.00,,,0.00,weatherlink.com 1.10,2013-02-16 17:02:00,
2013-02-16 09:16:00,47.3,44.0,30.20,SSW,208,0.0,0.0,88,0.00,,,0.00,weatherlink.com 1.10,2013-02-16 17:16:00,
2013-02-16 09:32:00,48.2,45.0,30.20,SSW,210,0.0,0.0,87,0.00,,,0.00,weatherlink.com 1.10,2013-02-16 17:32:00,
2013-02-16 09:47:00,50.0,46.0,30.20,SSW,210,0.0,0.0,85,0.00,,,0.00,weatherlink.com 1.10,2013-02-16 17:47:00,
2013-02-16 10:02:00,51.8,46.0,30.20,SSW,197,0.0,0.0,80,0.00,,,0.00,weatherlink.com 1.10,2013-02-16 18:02:00,
2013-02-16 10:17:00,53.3,46.0,30.20,West,272,0.0,1.0,77,0.00,,,0.00,weatherlink.com 1.10,2013-02-16 18:17:00,
2013-02-16 10:32:00,54.6,47.0,30.20,SW,229,0.0,0.0,75,0.00,,,0.00,weatherlink.com 1.10,2013-02-16 18:32:00,
2013-02-16 10:47:00,56.7,47.0,30.20,SSW,209,0.0,0.0,71,0.00,,,0.00,weatherlink.com 1.10,2013-02-16 18:47:00,
2013-02-16 11:02:00,58.5,48.0,30.19,WSW,242,1.0,4.0,68,0.00,,,0.00,weatherlink.com 1.10,2013-02-16 19:02:00,
2013-02-16 11:17:00,59.6,49.0,30.19,WSW,246,0.0,5.0,67,0.00,,,0.00,weatherlink.com 1.10,2013-02-16 19:17:00,
2013-02-16 11:32:00,60.0,48.0,30.18,ESE,114,2.0,3.0,64,0.00,,,0.00,weatherlink.com 1.10,2013-02-16 19:32:00,
2013-02-16 11:49:00,61.7,49.0,30.17,ESE,121,0.0,3.0,63,0.00,,,0.00,weatherlink.com 1.10,2013-02-16 19:49:00,
2013-02-16 12:02:00,63.2,50.0,30.17,WNW,283,1.0,4.0,62,0.00,,,0.00,weatherlink.com 1.10,2013-02-16 20:02:00,
2013-02-16 12:17:00,63.5,49.0,30.16,South,190,3.0,4.0,60,0.00,,,0.00,weatherlink.com 1.10,2013-02-16 20:17:00,
2013-02-16 12:32:00,63.8,49.0,30.15,SSW,207,3.0,6.0,60,0.00,,,0.00,weatherlink.com 1.10,2013-02-16 20:32:00,
2013-02-16 12:47:00,64.9,50.0,30.14,SW,236,1.0,6.0,58,0.00,,,0.00,weatherlink.com 1.10,2013-02-16 20:47:00,
2013-02-16 13:03:00,66.5,49.0,30.14,West,260,2.0,5.0,54,0.00,,,0.00,weatherlink.com 1.10,2013-02-16 21:03:00,
2013-02-16 13:18:00,67.8,48.0,30.13,SW,218,3.0,4.0,49,0.00,,,0.00,weatherlink.com 1.10,2013-02-16 21:18:00,
2013-02-16 13:33:00,68.5,48.0,30.12,SSW,212,3.0,6.0,48,0.00,,,0.00,weatherlink.com 1.10,2013-02-16 21:33:00,
2013-02-16 13:48:00,69.4,47.0,30.11,SSW,211,4.0,7.0,45,0.00,,,0.00,weatherlink.com 1.10,2013-02-16 21:48:00,
2013-02-16 14:03:00,69.3,45.0,30.11,WNW,284,1.0,6.0,42,0.00,,,0.00,weatherlink.com 1.10,2013-02-16 22:03:00,
2013-02-16 14:18:00,69.7,44.0,30.10,SSW,194,6.0,6.0,40,0.00,,,0.00,weatherlink.com 1.10,2013-02-16 22:18:00,
2013-02-16 14:33:00,69.9,44.0,30.09,SW,214,7.0,8.0,40,0.00,,,0.00,weatherlink.com 1.10,2013-02-16 22:33:00,
2013-02-16 14:48:00,70.3,45.0,30.08,SSW,203,2.0,8.0,40,0.00,,,0.00,weatherlink.com 1.10,2013-02-16 22:48:00,
2013-02-16 15:03:00,71.1,45.0,30.08,SSE,166,4.0,8.0,40,0.00,,,0.00,weatherlink.com 1.10,2013-02-16 23:03:00,
2013-02-16 15:18:00,70.8,45.0,30.08,SSW,207,5.0,8.0,40,0.00,,,0.00,weatherlink.com 1.10,2013-02-16 23:18:00,
2013-02-16 15:33:00,70.9,46.0,30.07,SSE,164,5.0,10.0,41,0.00,,,0.00,weatherlink.com 1.10,2013-02-16 23:33:00,
2013-02-16 15:48:00,70.8,49.0,30.07,South,174,5.0,9.0,47,0.00,,,0.00,weatherlink.com 1.10,2013-02-16 23:48:00,
2013-02-16 16:03:00,70.5,50.0,30.07,SSW,201,6.0,8.0,49,0.00,,,0.00,weatherlink.com 1.10,2013-02-17 00:03:00,
2013-02-16 16:18:00,69.7,45.0,30.07,SSW,203,5.0,9.0,42,0.00,,,0.00,weatherlink.com 1.10,2013-02-17 00:18:00,
2013-02-16 16:33:00,68.2,48.0,30.07,WSW,239,6.0,8.0,49,0.00,,,0.00,weatherlink.com 1.10,2013-02-17 00:33:00,
2013-02-16 16:48:00,65.9,49.0,30.07,SSE,166,5.0,13.0,54,0.00,,,0.00,weatherlink.com 1.10,2013-02-17 00:48:00,
2013-02-16 17:03:00,64.1,46.0,30.07,SSW,212,6.0,11.0,53,0.00,,,0.00,weatherlink.com 1.10,2013-02-17 01:03:00,
2013-02-16 17:18:00,62.6,48.0,30.06,WSW,243,3.0,6.0,60,0.00,,,0.00,weatherlink.com 1.10,2013-02-17 01:18:00,
2013-02-16 17:33:00,61.7,45.0,30.06,SSW,210,3.0,7.0,54,0.00,,,0.00,weatherlink.com 1.10,2013-02-17 01:33:00,
2013-02-16 17:48:00,59.2,45.0,30.06,SSW,203,6.0,8.0,59,0.00,,,0.00,weatherlink.com 1.10,2013-02-17 01:48:00,
2013-02-16 18:03:00,56.3,46.0,30.06,SSE,156,7.0,7.0,68,0.00,,,0.00,weatherlink.com 1.10,2013-02-17 02:03:00,
2013-02-16 18:33:00,53.4,46.0,30.06,SW,218,0.0,0.0,75,0.00,,,0.00,weatherlink.com 1.10,2013-02-17 02:33:00,
2013-02-16 18:49:00,52.3,45.0,30.06,SW,217,0.0,0.0,76,0.00,,,0.00,weatherlink.com 1.10,2013-02-17 02:49:00,
2013-02-16 19:03:00,51.3,45.0,30.06,SSW,201,0.0,0.0,78,0.00,,,0.00,weatherlink.com 1.10,2013-02-17 03:03:00,
2013-02-16 19:19:00,50.1,45.0,30.06,South,169,0.0,0.0,82,0.00,,,0.00,weatherlink.com 1.10,2013-02-17 03:19:00,
2013-02-16 19:33:00,49.1,45.0,30.06,SSW,200,3.0,5.0,86,0.00,,,0.00,weatherlink.com 1.10,2013-02-17 03:33:00,
2013-02-16 19:49:00,48.3,45.0,30.06,SSE,159,0.0,3.0,88,0.00,,,0.00,weatherlink.com 1.10,2013-02-17 03:49:00,
2013-02-16 20:03:00,47.6,44.0,30.06,ENE,57,0.0,1.0,86,0.00,,,0.00,weatherlink.com 1.10,2013-02-17 04:03:00,
2013-02-16 20:18:00,48.0,44.0,30.05,SSE,153,0.0,0.0,86,0.00,,,0.00,weatherlink.com 1.10,2013-02-17 04:18:00,
2013-02-16 20:34:00,47.1,43.0,30.06,NW,321,0.0,0.0,85,0.00,,,0.00,weatherlink.com 1.10,2013-02-17 04:34:00,
2013-02-16 21:03:00,45.9,44.0,30.06,SSE,153,0.0,0.0,91,0.00,,,0.00,weatherlink.com 1.10,2013-02-17 05:03:00,
2013-02-16 21:18:00,45.5,43.0,30.07,ENE,68,0.0,0.0,90,0.00,,,0.00,weatherlink.com 1.10,2013-02-17 05:18:00,
2013-02-16 21:33:00,45.5,43.0,30.06,NNW,334,0.0,0.0,91,0.00,,,0.00,weatherlink.com 1.10,2013-02-17 05:33:00,
2013-02-16 21:49:00,44.7,43.0,30.07,NNW,333,0.0,0.0,92,0.00,,,0.00,weatherlink.com 1.10,2013-02-17 05:49:00,
2013-02-16 22:03:00,44.2,42.0,30.06,East,98,0.0,0.0,92,0.00,,,0.00,weatherlink.com 1.10,2013-02-17 06:03:00,
2013-02-16 22:18:00,43.9,42.0,30.07,East,96,0.0,0.0,92,0.00,,,0.00,weatherlink.com 1.10,2013-02-17 06:18:00,
2013-02-16 22:34:00,43.9,42.0,30.06,South,191,0.0,0.0,93,0.00,,,0.00,weatherlink.com 1.10,2013-02-17 06:34:00,
2013-02-16 22:48:00,43.6,42.0,30.06,South,191,0.0,0.0,92,0.00,,,0.00,weatherlink.com 1.10,2013-02-17 06:48:00,
2013-02-16 23:03:00,43.8,42.0,30.05,SSE,167,0.0,0.0,93,0.00,,,0.00,weatherlink.com 1.10,2013-02-17 07:03:00,
2013-02-16 23:18:00,42.8,41.0,30.05,South,176,0.0,0.0,92,0.00,,,0.00,weatherlink.com 1.10,2013-02-17 07:18:00,
2013-02-16 23:34:00,42.8,41.0,30.05,North,352,0.0,1.0,94,0.00,,,0.00,weatherlink.com 1.10,2013-02-17 07:34:00,
2013-02-16 23:49:00,42.4,41.0,30.05,ESE,114,0.0,0.0,94,0.00,,,0.00,weatherlink.com 1.10,2013-02-17 07:49:00,